Orbital elements:
2012 US68 Earth MOID = 0.1730 AU
Epoch 2012 Sept. 30.0 TT = JDT 2456200.5 MPC
M 28.86060 (2000.0) P Q
n 0.24812982 Peri. 190.69375 -0.63903204 +0.71463475
a 2.5081302 Node 40.48807 -0.66941446 -0.33454053
e 0.9583022 Incl. 25.98638 -0.37884341 -0.61431247
P 3.97 H 18.3 G 0.15 U 9